Location: Champs
(48.8539°N, 2.6040°E)
Time: 18:54:58
(UTC+00:00)

ATLAS CENTAUR R/B - Pass Details

Date: 03 June 2022
Orbit: 443 x 688 km, 64.6° (Epoch: 07 June)

Event Time Altitude Azimuth Distance (km) Brightness Sun altitude
Rises 22:30:23 0° 304° (WNW) 3,036 6.0 -16.7°
Reaches altitude 10° 22:34:43 10° 267° (W) 2,073 4.4 -16.9°
Maximum altitude 22:35:47 11° 254° (WSW) 2,011 4.2 -16.9°
Drops below altitude 10° 22:36:50 10° 241° (WSW) 2,043 4.1 -17.0°
Enters shadow 22:38:08 - 226° (SW) 2,201 4.1 -17.1°
